Weather in Lovets

Russia / Pskov Oblast     56°01′50″N   29°37′10″E
temp.,
°C
wind,
m/s
gust,
m/s
humid.,
%
clouds,
%
prec.,
mm/h
press.,
hPa
HPBL,
m
4 march, thu
thu400:000wsw514845 0.0 1011763
03:00+1w598650 0.0 1009774
06:000w4990100 0.0 1006599
09:000w4895100 0.6 1005520
12:00+1wnw4795100 0.5 1004434
15:00+1nnw3678100 1.3 1004802
18:000nnw376867 0.0 1005404
21:00−3nnw298247 0.0 1006386
5 march, fri
fri500:00−4nnw38810 0.0 1008479
03:00−5nnw36840 0.0 1009427
06:00−5nw24810 0.0 1010336
09:00−5w23750 0.0 1010272
12:00−1wsw245477 0.0 10111115
15:00−1wsw246889 0.3 1012742
18:00−4nnw71288100 0.9 1013947
21:00−5nnw4780100 1.4 1016857
6 march, sat
sat600:00−5nnw4773100 0.1 1017831
03:00−7nnw368391 0.2 1019516
06:00−7nw3686100 0.1 1020549
09:00−7nw368290 0.1 1021408
12:00−4wnw366110 0.0 1021960
15:00−2w584614 0.0 10191523
18:00−2wsw51150100 0.0 10151323
21:00−2wsw71563100 0.0 10121445
7 march, sun
sun700:00−1wsw71661100 0.0 10081385
03:00−2wsw81675100 0.3 10031277
06:00−1wsw81694100 0.9 9991242
09:00−2nw71678100 4.8 9981702
12:00−3wnw81354100 0.1 9982232
15:00−2wnw9165397 0.4 9992548
18:00−3wnw7155598 0.3 10002174
21:00−5wnw7156593 0.4 10011657
8 march, mon
mon800:00−6nw61279100 0.2 10041338
03:00−7nw51078100 0.3 10061149
06:00−8nw5981100 0.1 10081236
09:00−9nnw61076100 0.3 10111017
12:00−8nnw5869100 0.1 10131057
15:00−6nnw5864100 0.1 10151218
18:00−7nnw5864100 0.1 10171323
21:00−9nnw497595 0.1 1020619